This is the latest recevied weather packets stored in our database for station/object KG5WBN. If no packets are shown the sender has not sent any weather packets the latest 10 day(s).
| Time | Temp. | Humidity | Pressure | Rain* | Wind** | Luminosity | Snow |
|---|---|---|---|---|---|---|---|
| 1777541924 | 22.22° C | 88% | 1008.8 hPa | 0 mm | - | 0 W/m² | - |
| 1777541621 | 22.22° C | 87% | 1009.1 hPa | 0 mm | - | 0 W/m² | - |
| 1777541317 | 22.22° C | 87% | 1009.1 hPa | 0 mm | - | 0 W/m² | - |
| 1777541013 | 22.22° C | 87% | 1009.1 hPa | 0 mm | - | 0 W/m² | - |
| 1777540710 | 22.22° C | 87% | 1009.5 hPa | 0 mm | - | 0 W/m² | - |
| 1777540407 | 22.22° C | 84% | 1009.5 hPa | 0 mm | - | 0 W/m² | - |
| 1777540104 | 22.22° C | 84% | 1009.5 hPa | 0 mm | - | 0 W/m² | - |
| 1777539804 | 22.22° C | 84% | 1009.5 hPa | 0 mm | - | 0 W/m² | - |
| 1777539501 | 22.78° C | 85% | 1009.8 hPa | 0 mm | - | 0 W/m² | - |
| 1777539197 | 22.22° C | 85% | 1009.1 hPa | 0 mm | - | 0 W/m² | - |
| 1777538894 | 23.33° C | 87% | 1009.5 hPa | 0 mm | - | 0 W/m² | - |
| 1777538589 | 22.78° C | 87% | 1011.2 hPa | 0 mm | - | 0 W/m² | - |
| 1777538284 | 23.33° C | 87% | 1011.2 hPa | 0 mm | - | 0 W/m² | - |
| 1777537980 | 22.78° C | 87% | 1011.2 hPa | 0 mm | - | 0 W/m² | - |
| 1777537676 | 22.78° C | 87% | 1010.8 hPa | 0 mm | - | 0 W/m² | - |
| 1777537373 | 23.33° C | 87% | 1010.8 hPa | 0 mm | - | 0 W/m² | - |
| 1777537069 | 22.78° C | 87% | 1010.5 hPa | 0 mm | - | 0 W/m² | - |
| 1777536766 | 23.33° C | 87% | 1010.8 hPa | 0 mm | - | 0 W/m² | - |
| 1777536462 | 23.33° C | 87% | 1011.9 hPa | 0 mm | - | 0 W/m² | - |
| 1777536160 | 23.33° C | 84% | 1012.2 hPa | 0 mm | - | 0 W/m² | - |
| 1777535855 | 22.78° C | 84% | 1011.5 hPa | 0 mm | - | 0 W/m² | - |
| 1777535552 | 23.33° C | 85% | 1011.5 hPa | 0 mm | - | 0 W/m² | - |
| 1777535249 | 23.33° C | 85% | 1011.9 hPa | 0 mm | - | 0 W/m² | - |
| 1777534946 | 22.78° C | 85% | 1011.5 hPa | 0 mm | - | 0 W/m² | - |
| 1777534642 | 23.33° C | 85% | 1011.9 hPa | 0 mm | - | 0 W/m² | - |
* Rain latest hour (hover to see other rain measurements)
** Current wind speed in m/s (hover to see current wind gust speed)